Location: Winthrop
(48.4780°N, 120.1850°W)
Time: 04:53:42
(UTC-08:00)

Vanguard 1 Rocket - Pass Details

Date: 03 December 2023
Orbit: 654 x 4218 km, 34.3° (Epoch: 24 February)

Event Time Altitude Azimuth Distance (km) Brightness Sun altitude
Rises 08:25:16 0° 259° (W) 6,983 11.6 5.8°
Reaches altitude 10° 08:31:09 10° 253° (WSW) 5,353 11.1 6.5°
Maximum altitude 08:43:00 35° 196° (SSW) 2,461 10.1 7.9°
Drops below altitude 10° 08:49:47 10° 133° (SE) 3,045 13.1 8.7°
Sets 08:52:10 0° 123° (ESE) 3,719 12.3 8.9°
